Wind_Speed
17 19 19 21 24 26 28 27 28 30 31 31 32 31 29 29 28 26 24 25 26 24 28 31 34 35 38 41 44 43 37 35 38 42 42 36 36 37 29 28 21 20 16
17 19 19 22 25 28 29 29 30 33 33 33 32 32 33 34 30 27 27 27 28 27 26 30 33 34 39 42 41 37 32 32 35 31 20 15 25 27 22 24 22 20 19
21 22 24 26 28 29 28 29 29 29 30 31 32 33 32 35 33 31 30 28 27 28 27 30 30 33 36 37 33 30 32 29 27 28 26 20 18 20 22 21 21 20 19
26 28 29 28 29 30 30 30 30 31 32 32 32 33 34 31 30 31 29 29 28 28 25 26 29 30 32 33 31 29 30 30 28 24 26 19 18 19 19 16 13 13 13
36 38 39 39 39 40 40 40 39 39 38 36 35 35 36 36 32 30 29 31 30 29 29 25 27 29 26 23 25 29 33 34 34 24 25 24 21 19 16 13 11 12 13
40 40 41 43 44 46 47 46 44 41 37 38 37 37 34 30 30 29 28 27 31 33 30 28 24 25 23 20 21 22 22 30 37 27 23 20 20 18 16 14 15 18 15
37 39 42 43 45 45 46 45 43 44 44 43 41 38 41 43 43 38 33 28 31 33 32 30 29 27 27 28 25 27 28 24 25 27 20 21 23 21 17 18 17 15 12
47 50 52 53 53 51 50 49 48 46 46 46 46 44 41 39 39 40 42 42 38 34 34 32 32 34 33 31 30 27 31 33 30 24 21 20 21 20 16 11 8 5 2
51 46 44 42 48 45 41 41 45 39 35 37 40 35 34 38 35 33 34 32 36 39 34 31 32 33 32 35 32 30 28 26 23 23 17 18 19 18 14 10 6 3 1
39 41 41 47 35 37 41 42 35 28 30 26 31 36 35 35 31 29 27 31 26 30 29 30 29 30 28 29 32 28 28 29 30 25 23 26 22 16 11 6 2 2 4
43 43 41 44 41 41 40 37 36 32 39 42 37 34 34 33 30 31 28 27 26 24 27 24 23 25 24 20 23 27 26 25 27 28 26 23 19 14 9 5 4 6 8
39 40 44 41 38 34 33 34 34 32 33 29 33 30 29 31 31 30 25 23 23 23 25 26 23 21 19 25 24 21 23 27 29 28 24 21 16 12 8 8 9 9 10
39 40 39 37 35 32 32 32 33 33 29 22 25 26 27 26 31 28 26 24 23 20 24 18 20 20 29 30 28 25 24 25 25 25 20 17 12 7 8 9 10 12 9
38 38 36 37 35 33 29 28 29 28 26 31 22 22 27 31 29 23 24 22 24 18 18 19 21 23 20 24 21 25 25 25 25 22 20 16 13 12 11 11 11 12 12
36 37 38 36 34 33 29 28 26 28 25 26 25 29 31 26 22 20 21 19 23 19 15 15 22 29 30 23 18 21 23 22 24 24 24 20 19 15 18 16 15 14 14
36 35 34 34 32 29 30 29 27 25 26 29 27 28 21 23 19 21 21 22 23 21 19 19 19 40 36 27 21 25 28 24 24 26 24 22 21 19 20 20 19 17 17
32 32 31 29 28 27 26 24 27 23 21 21 27 33 32 22 13 19 18 19 19 26 25 22 26 30 27 29 25 25 28 27 26 23 22 21 20 18 21 21 20 19 19
28 28 27 26 26 26 24 23 21 21 21 21 18 23 34 37 24 21 21 18 21 23 24 26 29 30 25 27 28 27 28 26 26 22 18 16 14 16 17 19 20 19 17
27 27 26 26 26 26 25 23 22 21 21 20 17 16 18 34 35 28 27 29 26 19 19 22 27 29 26 26 28 26 25 25 21 19 17 16 16 17 16 17 17 17 17
24 24 24 25 24 24 24 22 21 21 20 20 18 17 17 22 36 34 34 33 29 26 21 17 18 26 27 26 26 24 25 24 21 19 18 17 19 19 16 14 15 16 15
22 22 20 21 26 20 20 19 21 18 17 17 17 17 18 19 33 40 40 38 35 34 27 24 15 19 24 24 25 24 24 24 23 21 20 17 17 15 13 14 16 16 15
20 21 20 21 20 18 20 19 20 14 9 10 11 12 15 21 20 32 40 41 42 38 34 27 22 18 21 24 26 23 21 19 19 20 20 20 17 14 14 16 18 17 15
18 19 20 19 19 17 17 18 16 6 1 4 7 11 19 21 20 21 24 24 31 41 37 33 27 20 23 24 26 24 22 17 21 20 19 19 18 17 19 18 17 18 16
16 18 20 21 19 17 17 14 21 13 7 4 6 7 12 20 17 16 18 23 26 30 36 38 32 24 22 25 25 25 21 15 15 15 17 16 17 16 13 13 17 19 17
15 17 19 20 21 18 15 14 13 15 13 8 6 5 7 13 17 18 14 16 19 24 35 38 37 27 20 24 19 22 22 22 19 16 19 16 12 10 12 14 17 17 17
16 16 17 19 22 20 15 14 15 13 12 9 7 6 5 13 15 15 15 14 17 22 29 37 39 29 24 25 23 21 18 15 16 17 18 16 16 11 12 16 17 16 17
Wind_Direction
286 297 284 275 273 274 273 275 278 284 285 282 289 295 301 307 308 297 291 290 293 291 281 271 264 255 253 256 257 259 256 250 259 275 276 264 240 218 227 236 245 255 250
272 271 266 265 267 266 269 276 277 278 277 278 281 285 291 295 303 307 299 288 285 292 286 280 270 260 256 256 257 255 253 256 265 261 250 248 218 219 228 240 242 245 233
279 271 265 262 260 261 262 263 265 267 273 278 279 280 282 285 292 299 305 294 287 282 286 283 279 268 261 259 258 250 249 251 249 242 252 249 226 226 234 244 250 245 233
289 288 287 285 283 279 276 275 274 272 272 271 273 276 276 279 283 287 296 301 286 281 281 285 280 278 271 261 255 252 242 247 238 249 249 252 239 228 233 241 243 244 244
302 297 292 290 288 286 285 286 286 283 277 275 274 269 271 274 273 276 282 290 291 280 276 283 278 276 277 259 252 247 244 245 234 244 242 235 243 222 226 227 241 257 259
303 298 298 297 297 296 294 292 290 285 279 271 269 267 265 264 263 262 266 276 287 280 276 270 277 280 273 272 261 253 248 234 228 247 241 228 240 236 230 234 251 259 265
304 301 297 295 293 291 290 288 287 287 285 280 276 269 266 267 268 266 263 267 273 274 270 263 266 272 280 276 270 249 243 223 229 241 228 230 229 227 226 237 246 252 264
301 297 294 293 293 292 288 283 279 276 274 273 271 271 264 264 265 266 266 265 262 261 263 260 261 262 272 275 276 243 226 224 228 217 217 212 210 220 215 202 201 197 232
303 299 296 289 291 293 282 276 285 285 279 269 263 264 257 265 265 269 274 266 258 252 256 260 256 262 270 271 253 233 209 198 195 204 195 200 195 181 178 178 164 155 37
300 297 290 291 293 278 278 283 274 267 265 274 268 264 260 258 260 269 279 250 261 247 250 259 257 259 254 247 221 196 191 182 187 185 181 174 177 177 175 179 216 293 314
295 299 293 293 291 289 291 281 285 279 271 267 265 263 257 251 264 273 270 247 252 248 249 256 260 246 243 208 197 193 190 183 184 181 176 179 186 190 195 219 265 294 294
303 297 297 298 295 289 286 281 276 278 276 266 255 255 252 257 267 275 253 241 239 251 246 242 259 250 210 194 192 185 189 189 183 182 183 189 195 206 220 247 264 292 299
303 301 302 302 298 294 288 281 274 270 260 267 260 252 245 255 268 266 249 242 229 244 242 250 241 219 200 201 187 192 193 187 187 192 198 206 210 221 237 250 273 289 291
305 305 305 304 301 296 289 280 273 269 265 258 254 236 241 256 266 250 243 240 227 226 233 243 232 200 197 187 193 201 193 196 199 207 217 223 232 245 254 264 274 289 292
308 307 308 309 308 303 292 284 273 267 257 248 252 255 261 256 245 234 232 234 225 221 229 242 218 202 201 194 209 203 204 215 214 217 224 227 237 250 266 269 275 285 288
311 310 311 309 307 301 296 290 280 273 257 246 229 227 222 227 229 240 236 231 218 209 220 228 216 199 217 238 230 213 216 216 218 223 228 236 243 248 258 260 265 272 281
311 312 315 315 312 306 302 293 285 285 273 258 242 225 226 215 216 230 222 211 209 208 216 220 216 211 229 230 221 218 215 218 219 226 232 239 246 252 252 257 265 269 278
318 321 322 322 318 312 304 296 288 279 267 267 255 240 229 225 215 212 206 193 196 196 211 218 215 216 235 224 214 214 215 226 226 224 223 233 240 244 250 256 262 272 277
327 330 332 333 330 321 313 303 289 279 268 258 257 237 227 216 209 208 195 207 210 179 181 204 209 214 220 214 210 213 213 214 224 221 232 236 239 247 250 251 258 265 269
335 343 347 348 346 333 324 311 298 283 270 256 242 237 220 213 215 213 211 208 208 201 195 187 199 205 209 210 205 209 212 217 227 227 229 236 244 244 234 237 251 263 256
346 350 356 353 345 340 334 324 315 297 274 257 244 230 211 209 214 216 213 219 218 210 208 204 200 200 200 204 206 209 216 219 222 225 223 218 222 217 225 244 262 256 241
349 357 359 357 353 348 337 343 332 309 281 254 235 215 202 199 210 212 218 220 220 215 211 207 198 196 196 193 191 194 198 205 209 209 207 209 210 224 241 250 255 229 233
357 359 3 5 7 6 0 2 9 19 9 200 204 204 198 199 203 207 208 209 215 215 210 206 199 191 191 191 191 190 194 202 203 205 203 213 220 230 243 251 241 219 238
4 5 9 12 12 24 23 12 27 39 57 99 153 172 193 194 196 199 206 212 218 210 206 204 197 188 187 192 194 189 188 194 197 206 207 215 217 220 221 236 231 224 236
8 12 17 16 17 25 39 45 30 36 51 71 105 144 182 190 197 191 197 199 204 203 202 199 199 185 173 177 172 180 177 185 188 192 203 206 210 235 252 240 216 228 248
24 24 25 26 28 34 48 48 53 45 34 42 60 83 156 192 178 183 195 199 204 200 197 193 192 180 169 166 164 169 178 195 208 218 223 226 239 255 250 208 220 237 239
Height
1454 1455 1454 1453 1452 1450 1450 1450 1449 1447 1446 1444 1442 1441 1440 1439 1438 1436 1434 1434 1432 1431 1429 1428 1429 1432 1431 1432 1433 1434 1437 1438 1435 1433 1432 1430 1432 1440 1444 1449 1449 1450 1449
1449 1449 1448 1446 1445 1444 1443 1442 1442 1440 1438 1436 1434 1432 1432 1431 1431 1429 1427 1426 1425 1423 1422 1419 1419 1421 1420 1422 1423 1426 1429 1432 1432 1429 1430 1430 1429 1435 1440 1444 1445 1445 1443
1445 1443 1441 1440 1438 1436 1435 1434 1434 1432 1430 1428 1426 1424 1423 1422 1422 1422 1421 1419 1417 1416 1414 1412 1411 1411 1410 1412 1414 1419 1423 1425 1425 1426 1427 1429 1429 1433 1437 1440 1440 1440 1439
1440 1438 1436 1434 1432 1430 1428 1426 1425 1423 1420 1419 1418 1416 1414 1414 1413 1413 1413 1412 1410 1407 1406 1405 1404 1403 1403 1404 1408 1412 1417 1419 1422 1423 1424 1426 1427 1429 1431 1434 1435 1436 1436
1431 1428 1425 1423 1421 1418 1416 1414 1413 1411 1410 1410 1408 1407 1406 1404 1404 1404 1404 1403 1403 1400 1397 1396 1395 1396 1396 1397 1400 1403 1408 1410 1415 1417 1419 1422 1422 1425 1426 1429 1432 1433 1434
1421 1418 1415 1411 1408 1404 1401 1400 1398 1398 1397 1397 1397 1397 1396 1395 1395 1395 1394 1393 1395 1394 1390 1389 1388 1388 1390 1392 1394 1395 1399 1402 1407 1412 1415 1416 1420 1421 1423 1425 1426 1429 1430
1412 1407 1403 1399 1395 1392 1389 1386 1383 1381 1381 1381 1383 1384 1383 1383 1385 1386 1385 1384 1384 1384 1383 1381 1382 1381 1383 1386 1387 1389 1393 1397 1403 1409 1409 1413 1414 1417 1420 1421 1422 1423 1424
1400 1395 1391 1386 1382 1378 1375 1371 1369 1368 1366 1365 1365 1366 1368 1369 1372 1372 1372 1373 1373 1373 1375 1373 1373 1374 1375 1377 1380 1382 1385 1390 1397 1400 1405 1408 1412 1415 1417 1419 1422 1423 1422
1387 1382 1378 1374 1368 1363 1359 1356 1354 1351 1349 1348 1349 1350 1354 1356 1359 1360 1361 1358 1358 1361 1364 1365 1365 1365 1366 1369 1371 1374 1378 1384 1393 1400 1402 1405 1410 1413 1415 1417 1417 1419 1419
1376 1371 1365 1361 1356 1351 1347 1345 1343 1340 1338 1338 1338 1339 1341 1344 1347 1348 1348 1348 1348 1351 1354 1355 1356 1358 1360 1361 1363 1367 1372 1379 1389 1394 1398 1403 1407 1410 1413 1415 1417 1417 1416
1364 1357 1352 1348 1344 1339 1335 1333 1331 1328 1328 1327 1328 1328 1330 1334 1336 1337 1338 1339 1341 1343 1345 1347 1349 1350 1353 1354 1357 1362 1370 1377 1385 1391 1395 1400 1405 1407 1410 1412 1414 1414 1414
1351 1345 1339 1335 1331 1327 1324 1322 1321 1321 1318 1317 1318 1319 1321 1324 1326 1327 1328 1330 1333 1335 1337 1341 1344 1345 1346 1350 1355 1360 1370 1377 1383 1388 1392 1397 1400 1404 1406 1410 1412 1410 1410
1339 1333 1328 1323 1320 1317 1314 1312 1311 1311 1309 1310 1310 1310 1312 1315 1316 1318 1320 1322 1326 1327 1330 1334 1338 1342 1344 1347 1351 1360 1370 1374 1380 1385 1389 1393 1397 1401 1404 1405 1407 1407 1405
1329 1323 1318 1313 1307 1306 1303 1301 1300 1300 1300 1301 1302 1303 1304 1306 1307 1309 1312 1315 1319 1321 1324 1327 1330 1335 1341 1344 1351 1357 1364 1371 1376 1381 1386 1391 1394 1397 1400 1402 1403 1402 1402
1319 1314 1308 1303 1299 1296 1293 1291 1290 1290 1292 1293 1294 1296 1299 1298 1300 1304 1307 1310 1314 1318 1321 1321 1324 1330 1335 1340 1348 1355 1363 1368 1373 1378 1383 1386 1390 1392 1395 1397 1398 1398 1399
1312 1305 1300 1296 1291 1287 1284 1281 1280 1280 1281 1283 1284 1287 1289 1291 1295 1299 1302 1305 1308 1314 1318 1321 1323 1328 1332 1340 1347 1354 1359 1364 1369 1375 1377 1381 1384 1388 1392 1394 1395 1396 1397
1305 1299 1293 1287 1283 1279 1276 1273 1271 1271 1271 1273 1275 1278 1281 1285 1289 1294 1296 1300 1304 1309 1313 1318 1322 1327 1334 1339 1345 1350 1355 1359 1366 1369 1373 1376 1380 1383 1388 1389 1391 1392 1392
1298 1292 1287 1281 1277 1272 1269 1266 1265 1264 1264 1265 1267 1269 1272 1277 1284 1289 1293 1297 1301 1304 1309 1315 1319 1324 1328 1333 1340 1346 1351 1356 1361 1365 1367 1371 1375 1379 1382 1384 1386 1386 1387
1292 1287 1282 1277 1271 1267 1263 1259 1258 1257 1257 1258 1260 1262 1265 1269 1277 1283 1288 1293 1296 1301 1306 1310 1315 1322 1327 1331 1336 1342 1347 1351 1355 1358 1363 1367 1372 1375 1377 1380 1382 1384 1384
1288 1283 1278 1273 1267 1263 1258 1254 1251 1249 1249 1251 1253 1256 1260 1263 1268 1274 1279 1286 1292 1298 1302 1308 1312 1317 1323 1327 1333 1338 1343 1347 1352 1355 1359 1364 1369 1372 1374 1377 1380 1381 1382
1286 1281 1276 1270 1265 1261 1256 1250 1246 1243 1243 1245 1247 1250 1255 1259 1263 1268 1275 1281 1288 1294 1300 1305 1311 1314 1318 1323 1329 1334 1339 1344 1348 1352 1357 1361 1366 1368 1372 1375 1377 1379 1381
1285 1280 1275 1270 1264 1259 1254 1248 1242 1239 1239 1241 1243 1246 1250 1255 1259 1264 1270 1277 1284 1290 1297 1304 1309 1313 1317 1322 1327 1331 1336 1340 1344 1350 1355 1358 1363 1366 1369 1372 1374 1376 1378
1285 1280 1275 1270 1264 1259 1254 1249 1243 1240 1239 1240 1242 1245 1248 1253 1257 1262 1268 1273 1279 1286 1293 1300 1306 1310 1315 1321 1325 1330 1335 1339 1344 1349 1353 1355 1360 1363 1366 1368 1369 1373 1376
1286 1281 1276 1270 1265 1260 1256 1252 1248 1244 1243 1243 1244 1245 1248 1252 1257 1262 1266 1271 1275 1281 1289 1296 1302 1308 1313 1319 1323 1328 1333 1338 1343 1347 1350 1354 1357 1360 1362 1364 1367 1371 1372
1285 1282 1278 1273 1267 1262 1259 1255 1253 1250 1247 1246 1246 1248 1249 1252 1256 1261 1265 1268 1272 1277 1283 1291 1298 1305 1311 1317 1322 1326 1331 1338 1342 1345 1348 1352 1355 1357 1359 1361 1364 1366 1367
1286 1283 1280 1275 1270 1265 1263 1261 1258 1255 1253 1251 1250 1250 1250 1252 1256 1260 1263 1267 1270 1274 1280 1287 1295 1303 1310 1314 1321 1326 1331 1336 1339 1343 1346 1349 1352 1354 1354 1356 1361 1364 1363